Location: Pasarilla del Rebollar
(40.6790°N, 5.0062°W)
Time: 12:07:15
(UTC+00:00)

USA 81 - Pass Details

Date: 22 April 2026
Orbit: 782 x 785 km, 85.0° (Epoch: 16 May)

Event Time Altitude Azimuth Distance (km) Brightness Sun altitude
Rises 04:50:20 0° 357° (N) 3,281 7.6 -8.1°
Reaches altitude 10° 04:52:42 10° 359° (N) 2,348 6.8 -7.7°
Maximum altitude 04:57:58 75° 85° (E) 814 4.4 -6.8°
Drops below altitude 10° 05:03:12 10° 171° (S) 2,330 6.4 -5.8°
Sets 05:05:33 0° 173° (S) 3,254 7.1 -5.4°
